[[{"header":{"parameterUnit":"m.s-1","parameterCategory":2,"la1":30.2991,"la2":30.254,"lo1":-89.0895,"lo2":-89.0444,"dy":0.0017,"dx":0.0017,"nx":28,"ny":28,"refTime":"2025-05-15T21:00:00:Z","depth":"0","parameterNumber":2,"parameterNumberName":"U-component_of_CURRENTS"},"data":[0,0,0,0,0,0,0,0,0,0,0,0,0,0,0,0,0,0,0,0,0,0,0,0,0,0,0,0,0,0,0,0,0,0,0,0,0,0,0,0,0,0,0,0,0,0,0,0,0,0,0,0,0,0,0,0,0,0,-0.2222,-0.2223,0,-0.2355,-0.2357,-0.2359,-0.249,-0.2491,-0.2493,-0.2494,-0.2524,-0.2524,-0.2523,0,0,0,0,0,0,0,0,0,0,0,0,0,-0.2131,-0.2131,-0.2221,-0.2223,-0.2224,-0.2355,-0.2357,-0.236,-0.249,-0.2491,-0.2493,-0.2495,-0.2524,-0.2524,-0.2523,0,0,0,0,0,0,0,0,0,0,0,0,0,-0.2211,-0.2132,-0.2221,-0.2302,-0.231,-0.2355,-0.2357,-0.236,-0.2489,-0.2492,-0.2494,-0.2495,-0.2525,-0.2524,-0.2523,-0.2479,0,0,-0.2521,-0.2521,0,0,0,0,0,0,0,0,-0.2206,-0.2215,-0.2289,-0.2296,-0.2306,-0.2405,-0.2337,-0.2393,-0.2489,-0.2426,-0.2494,-0.2496,-0.247,-0.2474,-0.2502,-0.248,-0.2482,-0.2521,-0.2521,-0.252,-0.252,0,0,0,0,0,0,0,-0.2201,-0.221,-0.2279,-0.229,-0.23,-0.2349,-0.2363,-0.2349,-0.2436,-0.2431,-0.244,-0.2448,-0.2475,-0.2503,-0.2503,-0.2482,-0.2521,-0.2521,-0.252,-0.252,-0.2426,-0.2424,0,0,0,0,0,0,-0.2171,-0.2204,-0.2274,-0.2282,-0.2256,-0.2348,-0.2364,-0.2374,-0.2439,-0.2451,-0.2446,-0.2454,-0.2503,-0.2504,-0.2505,-0.2479,-0.252,-0.252,-0.2519,-0.2428,-0.2425,-0.2423,0,0,0,0,0,0,-0.2169,-0.2176,-0.2269,-0.2243,-0.2258,-0.2347,-0.2358,-0.2376,-0.2408,-0.2451,-0.2462,-0.2461,-0.2505,-0.2506,-0.2511,-0.248,-0.252,-0.2519,-0.243,-0.2427,-0.2424,-0.2412,0,0,0,0,0,0,-0.2166,-0.2175,-0.2175,-0.2241,-0.2258,-0.2291,-0.2356,-0.2377,-0.2408,-0.2419,-0.2465,-0.2472,-0.2506,-0.2512,-0.2511,-0.248,-0.2518,-0.2433,-0.2429,-0.2425,-0.2415,-0.2408,-0.2403,0,0,0,0,0,-0.2162,-0.2166,-0.2174,-0.2183,-0.2255,-0.229,-0.2303,-0.2377,-0.2406,-0.2415,-0.2458,-0.247,-0.2485,-0.2511,-0.251,-0.2478,-0.2435,-0.243,-0.2425,-0.2417,-0.241,-0.2403,0,0,0,0,0,0,-0.2142,-0.218,-0.2192,-0.221,-0.2237,-0.2311,-0.2329,-0.2362,-0.2406,-0.2417,-0.246,-0.2468,-0.2452,-0.2457,-0.2484,-0.2433,-0.2453,-0.2448,-0.2447,-0.244,-0.2434,-0.2464,-0.2518,0,0,0,0,0,-0.2126,-0.2132,-0.2172,-0.2183,-0.2193,-0.225,-0.2273,-0.2314,-0.2358,-0.2382,-0.2408,-0.2424,-0.2426,-0.2432,-0.243,-0.2408,-0.2408,-0.2377,-0.2371,-0.2367,-0.2386,-0.2366,-0.2362,-0.2407,-0.2407,-0.2407,0,0,-0.212,-0.214,-0.2145,-0.2176,-0.2207,-0.2237,-0.2272,-0.2299,-0.2328,-0.2369,-0.2403,-0.2399,-0.2413,-0.2404,-0.2393,-0.241,-0.2344,-0.236,-0.2357,-0.238,-0.2361,-0.2357,-0.2353,-0.2404,-0.2405,-0.2405,0,0,-0.2122,-0.2124,-0.2136,-0.2156,-0.2186,-0.2217,-0.2215,-0.2266,-0.2291,-0.2307,-0.234,-0.2332,-0.2333,-0.2352,-0.2359,-0.2308,-0.2308,-0.2278,-0.2287,-0.2267,-0.2264,-0.2262,-0.2227,-0.2222,-0.2284,-0.2284,-0.2284,0,-0.2114,-0.2139,-0.2144,-0.2167,-0.219,-0.2204,-0.2233,-0.2253,-0.2299,-0.2306,-0.231,-0.2314,-0.2317,-0.2324,-0.2317,-0.2299,-0.2284,-0.2322,-0.2264,-0.2262,-0.226,-0.2225,-0.2219,-0.2282,-0.2283,-0.2283,-0.2283,0,-0.2136,-0.2157,-0.2163,-0.2195,-0.2212,-0.2231,-0.2254,-0.2257,-0.2267,-0.2287,-0.2273,-0.228,-0.2292,-0.2264,-0.2288,-0.2262,-0.2251,-0.2255,-0.2293,-0.2255,-0.2219,-0.2214,-0.2281,-0.2281,-0.2282,-0.2282,0,0,-0.211,-0.217,-0.217,-0.2194,-0.2229,-0.2243,-0.2263,-0.2283,-0.2294,-0.2289,-0.2303,-0.2288,-0.2279,-0.2284,-0.228,-0.2264,-0.2223,-0.2259,-0.2259,-0.2246,-0.2165,-0.2031,-0.2013,-0.222,-0.2219,-0.2219,-0.2135,0,-0.2125,-0.2178,-0.2204,-0.2244,-0.227,-0.2285,-0.2304,-0.2315,-0.2314,-0.2318,-0.2298,-0.2297,-0.2289,-0.2284,-0.2268,-0.2241,-0.2213,-0.2244,-0.2186,-0.2184,-0.2089,-0.2004,-0.1908,-0.1815,-0.213,-0.213,-0.2129,0,-0.2124,-0.2167,-0.2218,-0.227,-0.228,-0.2303,-0.2319,-0.2339,-0.2339,-0.2337,-0.233,-0.2319,-0.2303,-0.2291,-0.2235,-0.2256,-0.2213,-0.2182,-0.2178,-0.2064,-0.2041,-0.1907,-0.1794,-0.1791,-0.2121,-0.2122,-0.2122,0,-0.2083,-0.2161,-0.2201,-0.2222,-0.2287,-0.2301,-0.2324,-0.2335,-0.234,-0.2345,-0.234,-0.2326,-0.2305,-0.2267,-0.2196,-0.2221,-0.2115,-0.214,-0.1975,-0.1966,-0.1879,-0.1861,-0.1779,-0.2089,-0.2089,-0.209,-0.209,0,-0.2067,-0.2088,-0.2186,-0.2202,-0.2228,-0.2285,-0.2293,-0.2308,-0.2335,-0.2313,-0.2344,-0.2302,-0.2297,-0.2234,-0.2189,-0.2042,-0.2102,-0.1958,-0.1928,-0.1863,-0.1846,-0.1836,-0.188,-0.2086,-0.2087,-0.2088,-0.2088,0,-0.1976,-0.2055,-0.209,-0.2179,-0.2202,-0.2206,-0.2261,-0.2266,-0.2307,-0.2282,-0.2283,-0.2277,-0.2173,-0.214,-0.2052,-0.1999,-0.1851,-0.1831,-0.1741,-0.17,-0.1538,-0.1584,-0.1492,-0.145,-0.1643,-0.1639,-0.1636,0,-0.1925,-0.1943,-0.2035,-0.2052,-0.2084,-0.212,-0.2138,-0.2218,-0.2229,-0.2225,-0.2201,-0.2128,-0.2002,-0.1838,-0.1738,-0.1613,-0.1668,-0.1477,-0.15,-0.1487,-0.1519,-0.158,-0.1558,-0.1378,-0.1373,-0.1369,-0.1366,0,-0.1805,-0.184,-0.187,-0.1916,-0.1949,-0.1977,-0.2021,-0.202,-0.2085,-0.2035,-0.1921,-0.1821,-0.1703,-0.1505,-0.1391,-0.1321,-0.1442,-0.1381,-0.1405,-0.1318,-0.1347,-0.1305,-0.1481,-0.1328,-0.1332,-0.1335,-0.1337,-0.1338,-0.168,-0.1667,-0.1715,-0.1727,-0.1776,-0.177,-0.1692,-0.1728,-0.1649,-0.1474,-0.1554,-0.1277,-0.1334,-0.1125,-0.1074,-0.1004,-0.1108,-0.1,-0.106,-0.1126,-0.1067,-0.1133,-0.0922,-0.0924,-0.0925,-0.0926,-0.0927,0,-0.1488,-0.1499,-0.1521,-0.1515,-0.1465,-0.1566,-0.1551,-0.1423,-0.1199,-0.1069,-0.0875,-0.072,-0.0665,-0.0737,-0.0772,-0.0731,-0.0766,-0.0744,-0.0851,-0.0846,-0.0919,-0.0888,-0.0615,-0.0615,-0.0615,-0.0615,-0.0615,-0.0615,-0.1394,-0.1325,-0.1336,-0.1185,-0.1175,-0.102,-0.0942,-0.0782,-0.0644,-0.0278,-0.0051,0.0011,-0.0292,-0.0607,-0.0685,-0.0659,-0.0706,-0.066,-0.0723,-0.0828,-0.086,-0.089,-0.0869,-0.0596,-0.0596,-0.0613,-0.0613,-0.0613]},{"header":{"parameterUnit":"m.s-1","parameterCategory":2,"la1":30.2991,"la2":30.254,"lo1":-89.0895,"lo2":-89.0444,"dy":0.0017,"dx":0.0017,"nx":28,"ny":28,"refTime":"2025-05-15T21:00:00:Z","depth":"0","parameterNumber":3,"parameterNumberName":"V-component_of_CURRENTS"},"data":[0,0,0,0,0,0,0,0,0,0,0,0,0,0,0,0,0,0,0,0,0,0,0,0,0,0,0,0,0,0,0,0,0,0,0,0,0,0,0,0,0,0,0,0,0,0,0,0,0,0,0,0,0,0,0,0,0,0,-0.0259,-0.0258,0,-0.0106,-0.0104,-0.0102,0.0066,0.0068,0.007,0.0072,0.0275,0.0279,0.0282,0,0,0,0,0,0,0,0,0,0,0,0,0,-0.0324,-0.0324,-0.0259,-0.0258,-0.0257,-0.0106,-0.0104,-0.0101,0.0066,0.0068,0.0071,0.0073,0.0274,0.0278,0.0283,0,0,0,0,0,0,0,0,0,0,0,0,0,-0.0242,-0.0324,-0.026,-0.0159,-0.0148,-0.0107,-0.0104,-0.0101,0.0066,0.0068,0.0071,0.0074,0.0273,0.0278,0.0283,0.0257,0,0,0.03,0.0302,0,0,0,0,0,0,0,0,-0.0247,-0.0239,-0.0175,-0.0166,-0.0154,-0.004,-0.0052,0.002,0.0065,-0.001,0.0072,0.0076,0.0169,0.0183,0.0212,0.0267,0.0275,0.03,0.0303,0.0306,0.0307,0,0,0,0,0,0,0,-0.0253,-0.0244,-0.0193,-0.0174,-0.0161,-0.0093,-0.0078,-0.0037,0.0066,-0.0004,0.0008,0.0016,0.0176,0.0206,0.0218,0.0278,0.03,0.0305,0.0308,0.031,0.0421,0.042,0,0,0,0,0,0,-0.029,-0.025,-0.0198,-0.0189,-0.02,-0.0095,-0.0078,-0.0076,0.0065,0.0087,0.0013,0.0023,0.0195,0.0211,0.0225,0.0241,0.0306,0.0311,0.0314,0.0421,0.0421,0.042,0,0,0,0,0,0,-0.0292,-0.0287,-0.0205,-0.022,-0.0205,-0.0098,-0.0096,-0.0074,-0.0037,0.0076,0.0101,0.0028,0.0198,0.0218,0.0282,0.0249,0.0313,0.0318,0.0421,0.0421,0.042,0.0248,0,0,0,0,0,0,-0.0294,-0.0289,-0.0296,-0.0223,-0.0206,-0.0182,-0.0099,-0.0074,-0.0039,-0.0024,0.0096,0.0119,0.0202,0.0273,0.0287,0.0258,0.0322,0.0422,0.0421,0.042,0.0254,0.0242,0.0231,0,0,0,0,0,-0.0297,-0.0313,-0.0298,-0.0291,-0.0221,-0.0184,-0.0168,-0.0078,-0.0042,-0.0032,0.006,0.0115,0.0281,0.0277,0.0294,0.0265,0.0422,0.0421,0.0421,0.0259,0.0244,0.0232,0,0,0,0,0,0,-0.0332,-0.0296,-0.0277,-0.0278,-0.0242,-0.0157,-0.014,-0.0098,-0.0021,-0.0001,0.0107,0.0135,0.0174,0.0247,0.024,0.03,0.0361,0.0363,0.0232,0.0219,0.0208,0.0212,0.0327,0,0,0,0,0,-0.0356,-0.0361,-0.0315,-0.0317,-0.0305,-0.0235,-0.0209,-0.0158,-0.0086,-0.0048,0.0028,0.0117,0.0179,0.0222,0.0287,0.0312,0.0386,0.031,0.0298,0.0288,0.0306,0.0369,0.0364,0.0418,0.0418,0.0418,0,0,-0.037,-0.0353,-0.0353,-0.0326,-0.0287,-0.0279,-0.0209,-0.0181,-0.0165,-0.0044,0.0003,0.0067,0.0175,0.0214,0.0239,0.0275,0.0309,0.0287,0.0277,0.0302,0.0368,0.0362,0.0357,0.0418,0.0418,0.0418,0,0,-0.0408,-0.0391,-0.041,-0.039,-0.0356,-0.0314,-0.0319,-0.0256,-0.0212,-0.0175,-0.0085,-0.0033,0.0061,0.0135,0.0184,0.0148,0.0236,0.0159,0.0113,0.0172,0.0168,0.0165,0.0233,0.0238,0.0165,0.0165,0.0164,0,-0.0427,-0.0447,-0.0408,-0.042,-0.0409,-0.0343,-0.0356,-0.0311,-0.0234,-0.0204,-0.0173,-0.004,0.0029,0.0093,0.0087,0.0118,0.0175,0.0145,0.0154,0.0153,0.0153,0.0224,0.0232,0.0156,0.0157,0.0158,0.0159,0,-0.0478,-0.0492,-0.05,-0.0497,-0.0479,-0.0481,-0.0428,-0.0402,-0.0358,-0.0306,-0.0248,-0.0154,-0.0061,-0.0054,0.0009,0.0038,0.0085,0.0114,0.0177,0.0136,0.0215,0.0225,0.0144,0.0147,0.015,0.0152,0,0,-0.0523,-0.0538,-0.054,-0.0552,-0.0524,-0.0511,-0.0494,-0.0452,-0.0422,-0.0366,-0.0322,-0.0246,-0.0193,-0.0131,-0.0066,-0.0015,0.001,0.0043,0.005,0.0092,0.015,0.0216,0.0236,0.0033,0.0034,0.0035,0.0197,0,-0.0575,-0.0629,-0.0611,-0.0641,-0.0662,-0.0601,-0.0581,-0.0529,-0.047,-0.0411,-0.0325,-0.026,-0.0222,-0.0182,-0.0135,-0.0012,0.0034,-0.0035,0.0203,0.0211,0.0258,0.0249,0.0278,0.0428,0.0208,0.021,0.0211,0,-0.0629,-0.066,-0.0714,-0.0713,-0.0712,-0.0711,-0.0658,-0.0631,-0.0531,-0.048,-0.0407,-0.0324,-0.0233,-0.0205,-0.0029,-0.0075,0.0022,0.0107,0.0116,0.0255,0.0299,0.0442,0.0457,0.056,0.0229,0.0228,0.0227,0,-0.0684,-0.0722,-0.0771,-0.0775,-0.0764,-0.076,-0.0737,-0.0655,-0.061,-0.0518,-0.0461,-0.0354,-0.0261,-0.0153,0.0028,-0.0001,0.0233,0.022,0.037,0.0377,0.0493,0.0508,0.0627,0.033,0.033,0.0329,0.0329,0,-0.0747,-0.0778,-0.0802,-0.0828,-0.0851,-0.0818,-0.0802,-0.0754,-0.0664,-0.0567,-0.0501,-0.0384,-0.0242,-0.0082,0.0033,0.0259,0.0244,0.0378,0.0426,0.0434,0.0441,0.0612,0.0638,0.0336,0.0334,0.0333,0.0332,0,-0.0793,-0.0816,-0.0864,-0.088,-0.0882,-0.0893,-0.0846,-0.0813,-0.073,-0.0598,-0.0562,-0.0384,-0.0165,-0.0014,0.0214,0.0305,0.0567,0.0561,0.0566,0.0612,0.0812,0.0828,0.1033,0.1126,0.0735,0.0738,0.074,0,-0.0822,-0.086,-0.0903,-0.0925,-0.0937,-0.0943,-0.0925,-0.0855,-0.0782,-0.0554,-0.0468,-0.0252,-0.0027,0.0295,0.046,0.0669,0.0728,0.0814,0.0754,0.0847,0.09,0.0896,0.0958,0.0839,0.0842,0.0844,0.0846,0,-0.0864,-0.0879,-0.0916,-0.0963,-0.0974,-0.0954,-0.0907,-0.0845,-0.0683,-0.0517,-0.0202,-0.0011,0.0263,0.0529,0.0725,0.0835,0.0892,0.0869,0.0969,0.1002,0.1006,0.1111,0.071,0.0867,0.0865,0.0863,0.0862,0.0861,-0.087,-0.0903,-0.0941,-0.097,-0.0978,-0.0894,-0.0812,-0.0691,-0.0483,-0.014,0.0028,0.0392,0.0624,0.0908,0.1003,0.115,0.1102,0.1204,0.122,0.1213,0.1286,0.0936,0.1138,0.1138,0.1138,0.1137,0.1137,0,-0.0837,-0.0878,-0.0932,-0.0922,-0.0876,-0.0882,-0.0734,-0.0581,-0.0259,0.0039,0.0391,0.0873,0.1092,0.122,0.1371,0.1485,0.1488,0.1542,0.1532,0.1584,0.1291,0.1278,0.1515,0.1515,0.1515,0.1515,0.1515,0.1515,-0.0819,-0.0843,-0.0871,-0.0793,-0.077,-0.0606,-0.0477,-0.0241,-0.0003,0.0507,0.086,0.1126,0.1324,0.1564,0.1723,0.1753,0.1874,0.1852,0.1937,0.1701,0.1669,0.1639,0.1634,0.1942,0.1943,0.2225,0.2228,0.223]}],[{"header":{"parameterUnit":"m.s-1","parameterCategory":2,"la1":30.2991,"la2":30.254,"lo1":-89.0895,"lo2":-89.0444,"dy":0.0017,"dx":0.0017,"nx":28,"ny":28,"refTime":"2025-05-15T21:00:00:Z","depth":"2","parameterNumber":2,"parameterNumberName":"U-component_of_CURRENTS"},"data":[0,0,0,0,0,0,0,0,0,0,0,0,0,0,0,0,0,0,0,0,0,0,0,0,0,0,0,0,0,0,0,0,0,0,0,0,0,0,0,0,0,0,0,0,0,0,0,0,0,0,0,0,0,0,0,0,0,0,-0.2102,-0.2103,0,-0.2126,-0.2126,-0.2126,-0.21,-0.21,-0.2099,-0.2099,-0.2079,-0.2079,-0.2079,0,0,0,0,0,0,0,0,0,0,0,0,0,-0.2029,-0.2031,-0.2102,-0.2103,-0.2103,-0.2126,-0.2126,-0.2126,-0.2101,-0.21,-0.2099,-0.2098,-0.2079,-0.2079,-0.2079,0,0,0,0,0,0,0,0,0,0,0,0,0,-0.2054,-0.2031,-0.2102,-0.2096,-0.2096,-0.2126,-0.2126,-0.2126,-0.2101,-0.21,-0.2099,-0.2098,-0.2079,-0.2079,-0.2079,-0.2099,0,0,-0.2079,-0.208,0,0,0,0,0,0,0,0,-0.2053,-0.2056,-0.2096,-0.2097,-0.2097,-0.2113,-0.2094,-0.2116,-0.2101,-0.2095,-0.2099,-0.2097,-0.209,-0.2089,-0.209,-0.2098,-0.2097,-0.2079,-0.208,-0.208,-0.208,0,0,0,0,0,0,0,-0.2051,-0.2055,-0.2107,-0.2097,-0.2098,-0.2091,-0.2093,-0.2098,-0.2093,-0.2095,-0.2094,-0.2104,-0.2089,-0.209,-0.209,-0.2097,-0.2079,-0.208,-0.208,-0.208,-0.2092,-0.2092,0,0,0,0,0,0,-0.2058,-0.2054,-0.2107,-0.2109,-0.2077,-0.2094,-0.2096,-0.2105,-0.2094,-0.2093,-0.2105,-0.2103,-0.2091,-0.209,-0.2089,-0.2094,-0.208,-0.208,-0.208,-0.2091,-0.2092,-0.2092,0,0,0,0,0,0,-0.2056,-0.2062,-0.2106,-0.2085,-0.209,-0.2096,-0.2107,-0.2106,-0.2109,-0.2102,-0.2099,-0.2108,-0.209,-0.2089,-0.2085,-0.2094,-0.208,-0.208,-0.2091,-0.2091,-0.2092,-0.2116,0,0,0,0,0,0,-0.2054,-0.2061,-0.2065,-0.2085,-0.2092,-0.2118,-0.2108,-0.2108,-0.2118,-0.2115,-0.2105,-0.2102,-0.2089,-0.2085,-0.2085,-0.2094,-0.208,-0.2091,-0.2091,-0.2092,-0.2115,-0.2117,-0.2119,0,0,0,0,0,-0.2051,-0.2057,-0.2065,-0.2071,-0.2098,-0.2119,-0.2121,-0.212,-0.2119,-0.2118,-0.2109,-0.2102,-0.2088,-0.2085,-0.2085,-0.2094,-0.209,-0.2091,-0.2092,-0.2114,-0.2116,-0.2119,0,0,0,0,0,0,-0.2026,-0.2057,-0.2065,-0.2079,-0.2098,-0.2116,-0.2116,-0.2126,-0.2121,-0.2115,-0.2107,-0.2104,-0.2104,-0.2097,-0.2095,-0.2098,-0.2088,-0.2089,-0.2105,-0.2107,-0.2109,-0.2114,-0.208,0,0,0,0,0,-0.2026,-0.2036,-0.2067,-0.2078,-0.2088,-0.2106,-0.2114,-0.2119,-0.2124,-0.2121,-0.2119,-0.2112,-0.2108,-0.2105,-0.21,-0.2106,-0.2089,-0.2111,-0.2113,-0.2115,-0.2119,-0.2104,-0.2105,-0.2094,-0.2094,-0.2094,0,0,-0.202,-0.2038,-0.2044,-0.2073,-0.2085,-0.2107,-0.2106,-0.2121,-0.2137,-0.2121,-0.2129,-0.2121,-0.2112,-0.2112,-0.2112,-0.2106,-0.2106,-0.2116,-0.2118,-0.212,-0.2104,-0.2105,-0.2106,-0.2094,-0.2094,-0.2094,0,0,-0.202,-0.203,-0.2043,-0.2061,-0.2088,-0.2101,-0.211,-0.2134,-0.2136,-0.215,-0.214,-0.2136,-0.2137,-0.2129,-0.2126,-0.2139,-0.2118,-0.2139,-0.2155,-0.214,-0.2141,-0.2141,-0.2107,-0.2105,-0.214,-0.214,-0.214,0,-0.2013,-0.2036,-0.2049,-0.2071,-0.2086,-0.2103,-0.2125,-0.2136,-0.2156,-0.216,-0.2151,-0.2152,-0.2144,-0.2147,-0.2149,-0.2145,-0.2126,-0.2146,-0.2143,-0.2143,-0.2143,-0.2108,-0.2105,-0.2141,-0.2141,-0.2141,-0.2141,0,-0.203,-0.2048,-0.2055,-0.2089,-0.2106,-0.2123,-0.215,-0.2162,-0.217,-0.2182,-0.2185,-0.2173,-0.2172,-0.2171,-0.2164,-0.2166,-0.2148,-0.2147,-0.2137,-0.2146,-0.2108,-0.2104,-0.2143,-0.2143,-0.2142,-0.2142,0,0,-0.2008,-0.2059,-0.206,-0.2078,-0.2116,-0.2131,-0.2157,-0.2183,-0.2197,-0.2204,-0.2216,-0.2211,-0.2205,-0.2201,-0.2193,-0.2182,-0.2163,-0.2168,-0.2167,-0.2134,-0.2114,-0.2018,-0.2004,-0.2162,-0.2162,-0.2162,-0.2083,0,-0.2015,-0.2055,-0.208,-0.2113,-0.2133,-0.2158,-0.2182,-0.2206,-0.2216,-0.2229,-0.2221,-0.2225,-0.2217,-0.2213,-0.2205,-0.2176,-0.2156,-0.2183,-0.2111,-0.2108,-0.2021,-0.1997,-0.1849,-0.176,-0.2079,-0.2078,-0.2078,0,-0.2015,-0.2044,-0.208,-0.2125,-0.2136,-0.216,-0.219,-0.2216,-0.224,-0.2247,-0.2251,-0.2246,-0.2237,-0.2227,-0.218,-0.2198,-0.216,-0.2132,-0.2129,-0.2029,-0.2004,-0.1805,-0.174,-0.2071,-0.2072,-0.2072,-0.2072,0,-0.1978,-0.2035,-0.206,-0.2077,-0.2136,-0.2153,-0.2182,-0.2215,-0.2231,-0.2255,-0.2256,-0.2254,-0.2236,-0.2208,-0.2152,-0.2168,-0.2085,-0.2099,-0.1972,-0.1964,-0.1818,-0.1797,-0.2059,-0.2059,-0.206,-0.206,-0.206,0,-0.1961,-0.1976,-0.2046,-0.2058,-0.2083,-0.2137,-0.2159,-0.2188,-0.2227,-0.2227,-0.2258,-0.2238,-0.223,-0.2184,-0.2147,-0.203,-0.2076,-0.1961,-0.1935,-0.1819,-0.1801,-0.2063,-0.2064,-0.2057,-0.2057,-0.2058,-0.2059,0,-0.1895,-0.1949,-0.1973,-0.2042,-0.2062,-0.2075,-0.2137,-0.2148,-0.22,-0.2199,-0.2205,-0.2215,-0.2143,-0.2112,-0.2045,-0.1995,-0.1917,-0.1866,-0.1719,-0.1677,-0.181,-0.1814,-0.1719,-0.1715,-0.1712,-0.1709,-0.1706,0,-0.1857,-0.1867,-0.1936,-0.1944,-0.197,-0.2009,-0.2026,-0.211,-0.2119,-0.2161,-0.2141,-0.2104,-0.2033,-0.1905,-0.1798,-0.169,-0.1793,-0.1515,-0.1521,-0.1789,-0.1774,-0.1783,-0.1792,-0.1333,-0.1327,-0.1323,-0.1319,0,-0.1769,-0.1796,-0.1816,-0.1841,-0.1864,-0.1889,-0.1925,-0.1937,-0.2014,-0.2027,-0.2004,-0.1963,-0.1827,-0.163,-0.1496,-0.1429,-0.1525,-0.1421,-0.1726,-0.1445,-0.1419,-0.1406,-0.1428,-0.1281,-0.1285,-0.1287,-0.129,-0.1291,-0.168,-0.1669,-0.1698,-0.1706,-0.1733,-0.1731,-0.1707,-0.1759,-0.1766,-0.1742,-0.181,-0.169,-0.1613,-0.1305,-0.1199,-0.111,-0.1225,-0.1186,-0.1202,-0.1222,-0.1195,-0.1164,-0.0972,-0.0974,-0.0976,-0.0977,-0.0979,0,-0.1557,-0.1557,-0.1556,-0.1552,-0.1514,-0.1588,-0.1598,-0.1546,-0.1505,-0.1518,-0.1495,-0.128,-0.1115,-0.1043,-0.0821,-0.0771,-0.0794,-0.0757,-0.0794,-0.0831,-0.0865,-0.0824,-0.05,-0.0499,-0.0497,-0.0496,0,0,-0.149,-0.1444,-0.1444,-0.133,-0.1323,-0.123,-0.1211,-0.1177,-0.1157,-0.1086,-0.103,-0.1085,-0.1026,-0.0782,-0.0702,-0.0566,-0.0708,-0.0534,-0.0914,-0.0997,-0.103,-0.1098,-0.1073,0,0,0,0,0]},{"header":{"parameterUnit":"m.s-1","parameterCategory":2,"la1":30.2991,"la2":30.254,"lo1":-89.0895,"lo2":-89.0444,"dy":0.0017,"dx":0.0017,"nx":28,"ny":28,"refTime":"2025-05-15T21:00:00:Z","depth":"2","parameterNumber":3,"parameterNumberName":"V-component_of_CURRENTS"},"data":[0,0,0,0,0,0,0,0,0,0,0,0,0,0,0,0,0,0,0,0,0,0,0,0,0,0,0,0,0,0,0,0,0,0,0,0,0,0,0,0,0,0,0,0,0,0,0,0,0,0,0,0,0,0,0,0,0,0,-0.0307,-0.0306,0,-0.0234,-0.0233,-0.0233,-0.021,-0.021,-0.021,-0.021,-0.0162,-0.0161,-0.016,0,0,0,0,0,0,0,0,0,0,0,0,0,-0.0357,-0.0357,-0.0307,-0.0306,-0.0305,-0.0234,-0.0233,-0.0233,-0.021,-0.021,-0.021,-0.0211,-0.0163,-0.0161,-0.016,0,0,0,0,0,0,0,0,0,0,0,0,0,-0.0318,-0.0357,-0.0307,-0.0283,-0.028,-0.0234,-0.0233,-0.0232,-0.021,-0.021,-0.021,-0.0211,-0.0163,-0.0161,-0.0159,-0.0143,0,0,-0.0153,-0.0152,0,0,0,0,0,0,0,0,-0.032,-0.0316,-0.0288,-0.0285,-0.0281,-0.0229,-0.0233,-0.0203,-0.021,-0.0239,-0.021,-0.0211,-0.0185,-0.0181,-0.0171,-0.0141,-0.0139,-0.0153,-0.0151,-0.0151,-0.015,0,0,0,0,0,0,0,-0.0323,-0.0319,-0.0281,-0.0286,-0.0282,-0.0252,-0.0247,-0.0227,-0.0215,-0.0237,-0.0234,-0.0222,-0.0184,-0.0173,-0.0169,-0.0138,-0.0153,-0.0151,-0.015,-0.0149,-0.0069,-0.0069,0,0,0,0,0,0,-0.033,-0.0322,-0.0283,-0.0278,-0.0299,-0.0251,-0.0246,-0.0248,-0.0214,-0.0208,-0.0222,-0.0221,-0.0176,-0.0172,-0.0167,-0.0147,-0.0151,-0.0149,-0.0147,-0.007,-0.0069,-0.0068,0,0,0,0,0,0,-0.0332,-0.0328,-0.0286,-0.0295,-0.0288,-0.025,-0.0252,-0.0246,-0.0237,-0.0202,-0.0197,-0.0219,-0.0176,-0.017,-0.0149,-0.0145,-0.0148,-0.0146,-0.0071,-0.007,-0.0069,-0.0105,0,0,0,0,0,0,-0.0334,-0.033,-0.0336,-0.0297,-0.0287,-0.027,-0.0251,-0.0244,-0.0227,-0.0226,-0.0198,-0.0193,-0.0176,-0.0153,-0.0147,-0.0142,-0.0144,-0.0072,-0.0071,-0.0069,-0.0105,-0.0106,-0.0106,0,0,0,0,0,-0.0336,-0.0348,-0.0337,-0.0332,-0.0297,-0.027,-0.0263,-0.0238,-0.0227,-0.0229,-0.0203,-0.0194,-0.0138,-0.0151,-0.0144,-0.0139,-0.0073,-0.0071,-0.0069,-0.0105,-0.0106,-0.0106,0,0,0,0,0,0,-0.0372,-0.0345,-0.0333,-0.0336,-0.0308,-0.0265,-0.0262,-0.024,-0.022,-0.0221,-0.0189,-0.0182,-0.016,-0.014,-0.0155,-0.0107,-0.0102,-0.0098,-0.0131,-0.0131,-0.0131,-0.015,-0.0142,0,0,0,0,0,-0.0383,-0.0387,-0.035,-0.0351,-0.0341,-0.0301,-0.0287,-0.0269,-0.0241,-0.0233,-0.0207,-0.0176,-0.0145,-0.0133,-0.0107,-0.0087,-0.0059,-0.0075,-0.0075,-0.0076,-0.0085,-0.0031,-0.0027,-0.0062,-0.0062,-0.0062,0,0,-0.0393,-0.038,-0.038,-0.0358,-0.0336,-0.0328,-0.0295,-0.028,-0.0269,-0.0231,-0.0214,-0.0179,-0.0139,-0.0114,-0.0102,-0.01,-0.0049,-0.0073,-0.0074,-0.0083,-0.0028,-0.0025,-0.0022,-0.0061,-0.0061,-0.0061,0,0,-0.0419,-0.0409,-0.0421,-0.0404,-0.0376,-0.0351,-0.0348,-0.0309,-0.0291,-0.0267,-0.0229,-0.0193,-0.0155,-0.0119,-0.0096,-0.008,-0.0052,-0.0068,-0.0088,-0.0036,-0.0033,-0.003,0.0013,0.002,-0.0069,-0.0069,-0.0069,0,-0.0433,-0.0443,-0.0418,-0.0423,-0.041,-0.0365,-0.0368,-0.0342,-0.0298,-0.0278,-0.0271,-0.0187,-0.0155,-0.0109,-0.0103,-0.0082,-0.0052,-0.0095,-0.0038,-0.0034,-0.0031,0.0013,0.0021,-0.0071,-0.0071,-0.0071,-0.007,0,-0.0466,-0.0471,-0.0476,-0.0469,-0.0453,-0.0449,-0.0408,-0.0388,-0.0357,-0.0321,-0.0272,-0.0219,-0.017,-0.0146,-0.0124,-0.0076,-0.0063,-0.0046,-0.0044,-0.003,0.0016,0.0025,-0.0073,-0.0072,-0.0072,-0.0072,0,0,-0.0503,-0.0501,-0.0502,-0.0506,-0.0478,-0.0468,-0.0448,-0.041,-0.0392,-0.0343,-0.031,-0.0245,-0.0209,-0.0181,-0.0135,-0.009,-0.0035,-0.0065,-0.0062,-0.0035,0.0075,0.0094,0.0106,-0.0011,-0.0009,-0.0008,0.0098,0,-0.0534,-0.0561,-0.0543,-0.0555,-0.0563,-0.0517,-0.0501,-0.0461,-0.0415,-0.0373,-0.0302,-0.0259,-0.0223,-0.0199,-0.0146,-0.006,-0.0014,-0.0066,0.0069,0.0072,0.0077,0.0116,0.009,0.0183,0.0107,0.0108,0.0109,0,-0.0574,-0.0585,-0.0611,-0.06,-0.0598,-0.0596,-0.0557,-0.0536,-0.0462,-0.0424,-0.0363,-0.0306,-0.0227,-0.0204,-0.006,-0.0096,-0.002,0.0044,0.0051,0.0084,0.0108,0.0159,0.0203,0.0125,0.0124,0.0122,0.0121,0,-0.0623,-0.063,-0.0653,-0.0652,-0.0634,-0.0631,-0.0614,-0.0555,-0.053,-0.0458,-0.0425,-0.0328,-0.0268,-0.0167,-0.0035,-0.0045,0.0123,0.013,0.0219,0.0221,0.0233,0.0234,0.0226,0.0226,0.0226,0.0225,0.0225,0,-0.0671,-0.0687,-0.0682,-0.0698,-0.0718,-0.0683,-0.0682,-0.0646,-0.0585,-0.0548,-0.046,-0.04,-0.0256,-0.0141,-0.0037,0.0124,0.0127,0.0222,0.0255,0.0221,0.0219,0.0192,0.0186,0.0229,0.0229,0.0228,0.0227,0,-0.0728,-0.0725,-0.0753,-0.0748,-0.0749,-0.0766,-0.074,-0.0729,-0.0663,-0.061,-0.0588,-0.0441,-0.0286,-0.014,0.0044,0.0132,0.0272,0.0324,0.0269,0.0293,0.0333,0.0324,0.0435,0.0436,0.0438,0.0439,0.044,0,-0.0762,-0.0785,-0.0805,-0.0826,-0.083,-0.0841,-0.0844,-0.0786,-0.0758,-0.0626,-0.0598,-0.0436,-0.0307,-0.0033,0.0141,0.033,0.0327,0.0411,0.0388,0.0336,0.0357,0.0346,0.0336,0.0394,0.0394,0.0395,0.0395,0,-0.0821,-0.0828,-0.0853,-0.0904,-0.0923,-0.0937,-0.0926,-0.0915,-0.0824,-0.0754,-0.0621,-0.0507,-0.0225,-0.0008,0.0234,0.0338,0.0375,0.0426,0.0409,0.0337,0.0304,0.0322,0.0312,0.0399,0.0398,0.0398,0.0398,0.0398,-0.0859,-0.0895,-0.0929,-0.0974,-0.1002,-0.1022,-0.1027,-0.0984,-0.0935,-0.0797,-0.0678,-0.0466,-0.0248,0.0108,0.0278,0.0445,0.044,0.0475,0.0471,0.0467,0.0436,0.0406,0.0514,0.0514,0.0515,0.0515,0.0515,0,-0.0905,-0.0941,-0.0992,-0.1043,-0.108,-0.1078,-0.1068,-0.1029,-0.0968,-0.0797,-0.066,-0.0403,-0.0156,0.0093,0.0361,0.0502,0.0483,0.0522,0.0468,0.0463,0.0459,0.0425,0.0502,0.0502,0.0503,0.0503,0,0,-0.0929,-0.0993,-0.102,-0.1096,-0.1127,-0.1146,-0.1139,-0.1064,-0.093,-0.0748,-0.0571,-0.0407,-0.0103,0.0064,0.0242,0.0398,0.0395,0.0409,0.0404,0.0314,0.0309,0.0417,0.0357,0,0,0,0,0]}],[{"header":{"parameterUnit":"m.s-1","parameterCategory":2,"la1":30.2991,"la2":30.254,"lo1":-89.0895,"lo2":-89.0444,"dy":0.0017,"dx":0.0017,"nx":28,"ny":28,"refTime":"2025-05-15T21:00:00:Z","depth":"4","parameterNumber":2,"parameterNumberName":"U-component_of_CURRENTS"},"data":[0,0,0,0,0,0,0,0,0,0,0,0,0,0,0,0,0,0,0,0,0,0,0,0,0,0,0,0,0,0,0,0,0,0,0,0,0,0,0,0,0,0,0,0,0,0,0,0,0,0,0,0,0,0,0,0,0,0,-0.1545,-0.1546,0,-0.1589,-0.1589,-0.1589,-0.1602,-0.1602,-0.1602,-0.1602,-0.1615,-0.1615,-0.1615,0,0,0,0,0,0,0,0,0,0,0,0,0,-0.1449,-0.145,-0.1545,-0.1546,-0.1547,-0.1589,-0.1589,-0.1589,-0.1602,-0.1602,-0.1602,-0.1602,-0.1615,-0.1615,-0.1615,0,0,0,0,0,0,0,0,0,0,0,0,0,-0.1488,-0.1451,-0.1545,-0.1561,-0.1563,-0.1589,-0.1589,-0.1589,-0.1602,-0.1602,-0.1602,-0.1602,-0.1615,-0.1615,-0.1615,-0.1614,0,0,-0.1616,-0.1617,0,0,0,0,0,0,0,0,-0.1485,-0.1491,-0.1558,-0.156,-0.1563,-0.1593,-0.156,-0.1597,-0.1602,-0.1583,-0.1602,-0.1602,-0.1607,-0.1608,-0.1611,-0.1614,-0.1615,-0.1616,-0.1617,-0.1617,-0.1617,0,0,0,0,0,0,0,-0.1483,-0.1489,-0.1559,-0.1559,-0.1562,-0.1558,-0.1564,-0.1567,-0.159,-0.1585,-0.1587,-0.1598,-0.1608,-0.161,-0.1611,-0.1615,-0.1616,-0.1617,-0.1617,-0.1617,-0.1681,-0.1683,0,0,0,0,0,0,-0.1487,-0.1487,-0.1557,-0.156,-0.1528,-0.156,-0.1566,-0.158,-0.1591,-0.1594,-0.1597,-0.1598,-0.161,-0.1611,-0.1612,-0.1661,-0.1617,-0.1617,-0.1617,-0.168,-0.1682,-0.1683,0,0,0,0,0,0,-0.1484,-0.1493,-0.1556,-0.1527,-0.1535,-0.1562,-0.1577,-0.1581,-0.161,-0.1601,-0.1603,-0.1626,-0.161,-0.1611,-0.1637,-0.166,-0.1617,-0.1618,-0.1678,-0.168,-0.1683,-0.1728,0,0,0,0,0,0,-0.1481,-0.1491,-0.151,-0.1528,-0.1537,-0.1584,-0.1578,-0.1582,-0.1617,-0.1618,-0.1626,-0.1626,-0.161,-0.1636,-0.1637,-0.166,-0.1618,-0.1676,-0.1679,-0.1682,-0.1724,-0.1731,-0.1737,0,0,0,0,0,-0.1478,-0.1494,-0.151,-0.1519,-0.1559,-0.1585,-0.159,-0.1606,-0.1618,-0.1632,-0.1642,-0.1627,-0.1655,-0.1638,-0.1638,-0.1661,-0.1675,-0.1678,-0.1682,-0.1721,-0.173,-0.1737,0,0,0,0,0,0,-0.146,-0.1498,-0.1516,-0.1544,-0.1573,-0.1589,-0.1607,-0.1624,-0.1644,-0.1652,-0.1644,-0.1644,-0.1675,-0.1667,-0.1649,-0.169,-0.1664,-0.1667,-0.1694,-0.1702,-0.1708,-0.1695,-0.1618,0,0,0,0,0,-0.1468,-0.1492,-0.1526,-0.1552,-0.1569,-0.1596,-0.1614,-0.163,-0.1648,-0.1658,-0.1669,-0.1679,-0.1686,-0.1694,-0.1698,-0.1721,-0.1695,-0.1738,-0.1745,-0.175,-0.1742,-0.1733,-0.1737,-0.1695,-0.1694,-0.1694,0,0,-0.147,-0.1494,-0.151,-0.1551,-0.1574,-0.16,-0.1606,-0.1641,-0.1667,-0.1656,-0.1697,-0.1703,-0.1698,-0.1722,-0.1735,-0.172,-0.1749,-0.1755,-0.1759,-0.1747,-0.1737,-0.1741,-0.1744,-0.1697,-0.1696,-0.1696,0,0,-0.1478,-0.1509,-0.1532,-0.1558,-0.1603,-0.1618,-0.1638,-0.1676,-0.1697,-0.1735,-0.1734,-0.1756,-0.1776,-0.1772,-0.1771,-0.1818,-0.1785,-0.1831,-0.1851,-0.1843,-0.1846,-0.1848,-0.1816,-0.1814,-0.1833,-0.1833,-0.1833,0,-0.1483,-0.1514,-0.1542,-0.157,-0.1594,-0.1632,-0.166,-0.1686,-0.173,-0.1746,-0.1756,-0.1792,-0.1794,-0.1808,-0.1826,-0.1831,-0.1814,-0.1819,-0.1849,-0.1851,-0.1852,-0.1818,-0.1816,-0.1836,-0.1836,-0.1835,-0.1835,0,-0.15,-0.1535,-0.1551,-0.1598,-0.1627,-0.1658,-0.1698,-0.1734,-0.1769,-0.179,-0.183,-0.1837,-0.1852,-0.1866,-0.1859,-0.1878,-0.1858,-0.1858,-0.1824,-0.1859,-0.1821,-0.1819,-0.184,-0.1839,-0.1838,-0.1837,0,0,-0.1485,-0.1551,-0.156,-0.1587,-0.1646,-0.1669,-0.1715,-0.1758,-0.1787,-0.1832,-0.186,-0.1886,-0.1897,-0.1897,-0.19,-0.1898,-0.1897,-0.1887,-0.1886,-0.1844,-0.1864,-0.1732,-0.1716,-0.1905,-0.1905,-0.1905,-0.1831,0,-0.1493,-0.1542,-0.1575,-0.1627,-0.1654,-0.17,-0.1737,-0.1783,-0.1819,-0.1857,-0.1874,-0.1903,-0.1906,-0.1921,-0.1922,-0.1906,-0.1893,-0.1916,-0.1845,-0.1842,-0.1712,-0.1709,-0.1905,-0.1829,-0.1828,-0.1827,-0.1827,0,-0.1495,-0.1529,-0.1578,-0.1641,-0.1659,-0.1698,-0.1757,-0.1797,-0.1848,-0.1876,-0.1905,-0.1921,-0.1933,-0.1933,-0.1908,-0.1925,-0.1896,-0.1878,-0.1874,-0.1729,-0.1705,-0.1789,-0.1821,-0.1822,-0.1822,-0.1822,-0.1823,0,-0.1456,-0.1528,-0.1567,-0.159,-0.1667,-0.1702,-0.1746,-0.1805,-0.1836,-0.189,-0.1908,-0.193,-0.1934,-0.1918,-0.1883,-0.1902,-0.1836,-0.1854,-0.1701,-0.1691,-0.1813,-0.1811,-0.1823,-0.1823,-0.1823,-0.1823,-0.1823,0,-0.1433,-0.1469,-0.1559,-0.158,-0.1627,-0.1692,-0.1743,-0.1787,-0.1847,-0.1855,-0.1917,-0.1904,-0.1932,-0.19,-0.1875,-0.1758,-0.1824,-0.1685,-0.1659,-0.1834,-0.1836,-0.181,-0.1809,-0.182,-0.1821,-0.1822,-0.1822,0,-0.1375,-0.1438,-0.1487,-0.1579,-0.161,-0.1645,-0.1736,-0.1757,-0.1831,-0.184,-0.1856,-0.1886,-0.1826,-0.1821,-0.1774,-0.1718,-0.1645,-0.1588,-0.1751,-0.1738,-0.151,-0.1513,-0.1409,-0.1404,-0.1399,-0.1396,-0.1392,0,-0.1342,-0.1365,-0.147,-0.1494,-0.1539,-0.1605,-0.1635,-0.1733,-0.1742,-0.1793,-0.1768,-0.1755,-0.1746,-0.1566,-0.159,-0.1509,-0.1495,-0.1456,-0.1504,-0.148,-0.1466,-0.1476,-0.1485,-0.1385,-0.1384,-0.1383,-0.1382,0,-0.1271,-0.1325,-0.1362,-0.141,-0.1456,-0.1492,-0.1542,-0.1541,-0.1615,-0.1706,-0.1623,-0.158,-0.15,-0.1453,-0.1391,-0.1346,-0.1488,-0.1409,-0.1419,-0.1464,-0.1449,-0.1442,-0.1457,-0.1366,-0.1368,-0.137,-0.137,0,-0.1213,-0.1219,-0.1271,-0.1297,-0.1348,-0.1335,-0.1391,-0.1382,-0.1411,-0.1478,-0.1437,-0.1425,-0.1463,-0.1364,-0.131,-0.1248,-0.1239,-0.1218,-0.1238,-0.1256,-0.1241,-0.1203,-0.1,0,0,0,0,0,-0.1141,-0.1128,-0.1145,-0.1157,-0.1199,-0.1221,-0.1293,-0.1347,-0.1428,-0.1324,-0.138,-0.1298,-0.1213,-0.122,-0.1119,-0.1236,-0.1244,-0.1116,-0.1232,-0.1278,-0.1297,-0.1294,0,0,0,0,0,0,-0.1088,-0.1105,-0.11,-0.1025,-0.1002,-0.1023,-0.1064,-0.1125,-0.1082,-0.1174,-0.113,-0.121,-0.1144,-0.1226,-0.1083,-0.1084,-0.113,-0.1131,-0.1127,-0.1268,-0.1285,-0.1299,-0.1303,0,0,0,0,0]},{"header":{"parameterUnit":"m.s-1","parameterCategory":2,"la1":30.2991,"la2":30.254,"lo1":-89.0895,"lo2":-89.0444,"dy":0.0017,"dx":0.0017,"nx":28,"ny":28,"refTime":"2025-05-15T21:00:00:Z","depth":"4","parameterNumber":3,"parameterNumberName":"V-component_of_CURRENTS"},"data":[0,0,0,0,0,0,0,0,0,0,0,0,0,0,0,0,0,0,0,0,0,0,0,0,0,0,0,0,0,0,0,0,0,0,0,0,0,0,0,0,0,0,0,0,0,0,0,0,0,0,0,0,0,0,0,0,0,0,-0.0216,-0.0216,0,-0.0177,-0.0177,-0.0176,-0.0171,-0.0171,-0.0172,-0.0172,-0.0143,-0.0142,-0.0141,0,0,0,0,0,0,0,0,0,0,0,0,0,-0.0239,-0.0239,-0.0216,-0.0216,-0.0215,-0.0177,-0.0177,-0.0176,-0.0171,-0.0171,-0.0172,-0.0172,-0.0143,-0.0142,-0.0141,0,0,0,0,0,0,0,0,0,0,0,0,0,-0.022,-0.0239,-0.0216,-0.0206,-0.0205,-0.0177,-0.0177,-0.0176,-0.0171,-0.0171,-0.0172,-0.0172,-0.0144,-0.0142,-0.0141,-0.0127,0,0,-0.0137,-0.0136,0,0,0,0,0,0,0,0,-0.0221,-0.0219,-0.0208,-0.0207,-0.0205,-0.0177,-0.0174,-0.016,-0.0171,-0.0186,-0.0172,-0.0172,-0.0154,-0.0151,-0.0147,-0.0126,-0.0125,-0.0136,-0.0136,-0.0135,-0.0135,0,0,0,0,0,0,0,-0.0222,-0.0221,-0.0203,-0.0207,-0.0205,-0.0187,-0.0185,-0.0171,-0.0171,-0.0185,-0.0184,-0.0176,-0.0153,-0.0148,-0.0146,-0.0124,-0.0137,-0.0135,-0.0134,-0.0134,-0.0085,-0.0084,0,0,0,0,0,0,-0.0225,-0.0222,-0.0204,-0.0202,-0.0211,-0.0186,-0.0184,-0.0188,-0.0171,-0.0168,-0.0176,-0.0176,-0.015,-0.0148,-0.0145,-0.0127,-0.0135,-0.0134,-0.0133,-0.0085,-0.0085,-0.0084,0,0,0,0,0,0,-0.0226,-0.0224,-0.0206,-0.0208,-0.0204,-0.0186,-0.0189,-0.0187,-0.0185,-0.0163,-0.0161,-0.0177,-0.015,-0.0147,-0.0136,-0.0126,-0.0133,-0.0132,-0.0086,-0.0085,-0.0085,-0.0091,0,0,0,0,0,0,-0.0227,-0.0225,-0.0232,-0.0209,-0.0204,-0.0197,-0.0189,-0.0186,-0.0179,-0.0179,-0.0164,-0.0161,-0.015,-0.0138,-0.0135,-0.0124,-0.0131,-0.0087,-0.0086,-0.0085,-0.0091,-0.009,-0.009,0,0,0,0,0,-0.0228,-0.0237,-0.0233,-0.0231,-0.0214,-0.0197,-0.0193,-0.0181,-0.0179,-0.0181,-0.0169,-0.0162,-0.013,-0.0137,-0.0133,-0.0121,-0.0087,-0.0086,-0.0085,-0.0092,-0.0091,-0.009,0,0,0,0,0,0,-0.025,-0.0237,-0.0232,-0.0237,-0.022,-0.0195,-0.0196,-0.0184,-0.0176,-0.0179,-0.016,-0.0156,-0.0141,-0.0131,-0.0139,-0.0104,-0.0105,-0.0104,-0.0112,-0.0111,-0.011,-0.0123,-0.013,0,0,0,0,0,-0.0257,-0.0264,-0.0242,-0.0245,-0.024,-0.0219,-0.0211,-0.0203,-0.0187,-0.0185,-0.0169,-0.0152,-0.0131,-0.0123,-0.0108,-0.0092,-0.0074,-0.008,-0.0079,-0.0078,-0.0085,-0.004,-0.0036,-0.0081,-0.0081,-0.0081,0,0,-0.0264,-0.0259,-0.0261,-0.025,-0.0239,-0.0233,-0.0216,-0.0209,-0.0201,-0.0182,-0.0172,-0.0152,-0.0127,-0.0108,-0.0099,-0.01,-0.0057,-0.0077,-0.0077,-0.0084,-0.0039,-0.0034,-0.0031,-0.008,-0.008,-0.008,0,0,-0.0278,-0.0279,-0.0288,-0.0278,-0.0264,-0.0249,-0.0248,-0.0226,-0.0215,-0.0201,-0.0179,-0.0153,-0.0132,-0.0103,-0.0087,-0.0073,-0.0055,-0.0067,-0.0073,-0.0029,-0.0025,-0.0021,0.0004,0.001,-0.0066,-0.0066,-0.0066,0,-0.0288,-0.0296,-0.0285,-0.0289,-0.0281,-0.0258,-0.0259,-0.0243,-0.0217,-0.0204,-0.0203,-0.0149,-0.0126,-0.0087,-0.0082,-0.007,-0.0052,-0.0079,-0.0028,-0.0024,-0.002,0.0005,0.0012,-0.0066,-0.0066,-0.0066,-0.0066,0,-0.0304,-0.0311,-0.0315,-0.0313,-0.0304,-0.0302,-0.0276,-0.0266,-0.0249,-0.0225,-0.019,-0.0155,-0.0122,-0.0103,-0.009,-0.0047,-0.0046,-0.0033,-0.0032,-0.0016,0.001,0.0017,-0.0066,-0.0066,-0.0066,-0.0066,0,0,-0.0328,-0.0327,-0.033,-0.0335,-0.0318,-0.0315,-0.0298,-0.0272,-0.0263,-0.0229,-0.0206,-0.0156,-0.0134,-0.0114,-0.0082,-0.0044,0.0004,-0.0032,-0.003,-0.0011,0.0087,0.0059,0.0065,0.0025,0.0027,0.0028,0.0093,0,-0.0345,-0.0361,-0.035,-0.036,-0.0366,-0.034,-0.0328,-0.0302,-0.0274,-0.0247,-0.0193,-0.0167,-0.0137,-0.0125,-0.0076,-0.0018,0.0022,-0.0016,0.0071,0.0074,0.0045,0.0072,0.0032,0.0098,0.01,0.0101,0.0102,0,-0.0369,-0.0376,-0.0393,-0.039,-0.039,-0.0391,-0.0372,-0.0357,-0.0307,-0.0284,-0.0238,-0.0201,-0.0136,-0.0119,-0.0006,-0.0034,0.0022,0.0068,0.0072,0.0051,0.0059,0.0081,0.0115,0.0114,0.0113,0.0112,0.0111,0,-0.0404,-0.0408,-0.0425,-0.0425,-0.0416,-0.0419,-0.0411,-0.0373,-0.0362,-0.0312,-0.0298,-0.0215,-0.0178,-0.0092,-0.0,-0.0,0.0116,0.0132,0.0161,0.0159,0.0166,0.0162,0.0211,0.021,0.021,0.021,0.021,0,-0.0431,-0.0448,-0.0449,-0.0463,-0.0486,-0.0461,-0.0473,-0.045,-0.0413,-0.0399,-0.0326,-0.0294,-0.017,-0.009,-0.0005,0.0094,0.0118,0.016,0.0178,0.0162,0.0156,0.0171,0.0166,0.0213,0.0212,0.0212,0.0211,0,-0.0475,-0.0473,-0.0501,-0.0504,-0.051,-0.0532,-0.0531,-0.0532,-0.0488,-0.0467,-0.0455,-0.0347,-0.0243,-0.0127,0.0015,0.008,0.0179,0.0207,0.0166,0.018,0.0194,0.0188,0.0252,0.0251,0.0251,0.0251,0.0251,0,-0.0498,-0.0517,-0.0549,-0.0575,-0.0585,-0.0608,-0.0622,-0.0585,-0.0576,-0.0498,-0.0487,-0.0384,-0.0307,-0.0128,-0.0002,0.0153,0.0174,0.0222,0.0223,0.0189,0.0201,0.0195,0.0189,0.025,0.025,0.025,0.025,0,-0.0544,-0.0561,-0.0585,-0.0643,-0.0674,-0.0698,-0.0707,-0.0701,-0.0645,-0.0607,-0.0515,-0.0408,-0.0289,-0.0139,-0.0025,0.009,0.0191,0.022,0.0221,0.0223,0.0188,0.0199,0.0193,0.0249,0.0249,0.0249,0.0249,0,-0.0581,-0.0615,-0.0653,-0.0699,-0.0746,-0.077,-0.0765,-0.0734,-0.0711,-0.0607,-0.0579,-0.0433,-0.0337,-0.0172,-0.0062,0.0041,0.0073,0.0109,0.0117,0.012,0.006,-0.0004,0.0015,0,0,0,0,0,-0.0612,-0.0651,-0.0702,-0.0749,-0.0795,-0.0815,-0.0812,-0.0788,-0.0729,-0.0678,-0.0622,-0.0511,-0.0322,-0.0229,-0.0132,-0.0074,0.0081,0.0042,0.0123,0.0243,0.0245,0.0195,0,0,0,0,0,0,-0.0633,-0.069,-0.071,-0.0779,-0.0815,-0.0855,-0.0853,-0.0809,-0.0763,-0.069,-0.0592,-0.0504,-0.0327,-0.0392,-0.014,-0.0103,-0.0041,0.0141,0.0143,0.0243,0.0244,0.0245,0.0194,0,0,0,0,0]}]]